This is the latest recevied weather packets stored in our database for station/object K4PAD. If no packets are shown the sender has not sent any weather packets the latest 10 day(s).
| Time | Temp. | Humidity | Pressure | Rain* | Wind** | Luminosity | Snow |
|---|---|---|---|---|---|---|---|
| 1777584705 | 31.67° C | 46% | 1009.1 hPa | 0 mm | - | 472 W/m² | - |
| 1777584402 | 32.22° C | 46% | 1009.2 hPa | 0 mm | - | 466 W/m² | - |
| 1777584098 | 31.67° C | 49% | 1009 hPa | 0 mm | - | 524 W/m² | - |
| 1777583798 | 31.11° C | 48% | 1009.1 hPa | 0 mm | - | 524 W/m² | - |
| 1777583493 | 31.11° C | 48% | 1009.1 hPa | 0 mm | - | 564 W/m² | - |
| 1777583187 | 30.56° C | 48% | 1009.1 hPa | 0 mm | - | 579 W/m² | - |
| 1777582882 | 30.56° C | 49% | 1009.3 hPa | 0 mm | - | 622 W/m² | - |
| 1777582580 | 30.56° C | 50% | 1009.3 hPa | 0 mm | - | 662 W/m² | - |
| 1777582275 | 30.56° C | 52% | 1009.4 hPa | 0 mm | - | 670 W/m² | - |
| 1777581973 | 30° C | 53% | 1009.5 hPa | 0 mm | - | 661 W/m² | - |
| 1777581668 | 30° C | 53% | 1009.6 hPa | 0 mm | - | 743 W/m² | - |
| 1777581362 | 29.44° C | 53% | 1009.6 hPa | 0 mm | - | 520 W/m² | - |
| 1777581057 | 29.44° C | 57% | 1009.6 hPa | 0 mm | - | 427 W/m² | - |
| 1777580756 | 29.44° C | 56% | 1009.9 hPa | 0 mm | - | 314 W/m² | - |
| 1777580454 | 30° C | 53% | 1010 hPa | 0 mm | - | 203 W/m² | - |
| 1777580148 | 30.56° C | 53% | 1010.1 hPa | 0 mm | - | 266 W/m² | - |
| 1777579846 | 30.56° C | 52% | 1010 hPa | 0 mm | - | 755 W/m² | - |
| 1777579544 | 30.56° C | 52% | 1009.9 hPa | 0 mm | - | 354 W/m² | - |
| 1777579244 | 30° C | 54% | 1010.2 hPa | 0 mm | - | 429 W/m² | - |
| 1777578940 | 30.56° C | 52% | 1010.1 hPa | 0 mm | - | 269 W/m² | - |
| 1777578635 | 30.56° C | 51% | 1010.1 hPa | 0 mm | - | 744 W/m² | - |
| 1777578334 | 31.11° C | 51% | 1010.2 hPa | 0 mm | - | 468 W/m² | - |
| 1777578032 | 30.56° C | 53% | 1010.3 hPa | 0 mm | - | 1049 W/m² | - |
| 1777577726 | 30° C | 56% | 1010.3 hPa | 0 mm | - | 1219 W/m² | - |
| 1777577423 | 30° C | 56% | 1010.3 hPa | 0 mm | - | 382 W/m² | - |
* Rain latest hour (hover to see other rain measurements)
** Current wind speed in m/s (hover to see current wind gust speed)